[[{"header":{"parameterUnit":"m.s-1","parameterCategory":1,"la1":30.2991,"la2":30.254,"lo1":-89.0895,"lo2":-89.0444,"dy":0.0017,"dx":0.0017,"nx":28,"ny":28,"refTime":"2025-12-29T03:00:00:Z","depth":0,"parameterNumber":2,"parameterNumberName":"U-component_of_WINDS"},"data":[0,0,0,0,0,0,0,0,0,0,0,0,0,0,0,0,0,0,0,0,0,0,0,0,0,0,0,0,0,0,0,0,0,0,0,0,0,0,0,0,0,0,0,0,0,0,0,0,0,0,0,0,0,0,0,0,0,0,2.0153,2.0153,0,2.0168,2.0168,2.0168,2.0157,2.0157,2.0156,2.0156,2.017,2.0171,2.0172,0,0,0,0,0,0,0,0,0,0,0,0,0,2.0114,2.0115,2.0153,2.0153,2.0153,2.0168,2.0168,2.0168,2.0157,2.0157,2.0156,2.0156,2.017,2.0171,2.0172,0,0,0,0,0,0,0,0,0,0,0,0,0,2.013,2.0115,2.0153,2.015,2.015,2.0168,2.0168,2.0168,2.0158,2.0157,2.0156,2.0155,2.0169,2.0171,2.0172,2.0194,0,0,2.0175,2.0176,0,0,0,0,0,0,0,0,2.0129,2.0132,2.015,2.015,2.015,2.016,2.016,2.0177,2.0158,2.0154,2.0156,2.0155,2.0167,2.0169,2.0173,2.0194,2.0195,2.0176,2.0176,2.0177,2.0177,0,0,0,0,0,0,0,2.0128,2.0131,2.0159,2.015,2.015,2.0147,2.0149,2.0163,2.0165,2.0155,2.0154,2.0156,2.0167,2.0172,2.0173,2.0195,2.0176,2.0177,2.0177,2.0178,2.0236,2.0237,0,0,0,0,0,0,2.0128,2.013,2.0158,2.0159,2.0138,2.0149,2.015,2.0157,2.0164,2.0165,2.0157,2.0155,2.017,2.0172,2.0174,2.02,2.0177,2.0178,2.0179,2.0236,2.0237,2.0237,0,0,0,0,0,0,2.0127,2.013,2.0158,2.0145,2.0148,2.015,2.0158,2.0158,2.0163,2.0166,2.0166,2.0161,2.0169,2.0172,2.0189,2.02,2.0179,2.018,2.0235,2.0236,2.0237,2.0253,0,0,0,0,0,0,2.0126,2.013,2.0138,2.0145,2.0149,2.0173,2.0159,2.0159,2.0165,2.0164,2.017,2.017,2.0169,2.0187,2.019,2.0202,2.0181,2.0234,2.0235,2.0237,2.0251,2.0254,2.0257,0,0,0,0,0,2.0124,2.0142,2.0139,2.0142,2.0159,2.0174,2.0176,2.0174,2.0166,2.0174,2.0177,2.017,2.0199,2.0189,2.0192,2.0204,2.0233,2.0235,2.0237,2.025,2.0254,2.0257,0,0,0,0,0,0,2.0135,2.0142,2.0139,2.0159,2.0166,2.0172,2.0182,2.0178,2.0187,2.0185,2.0183,2.0184,2.0202,2.0205,2.0194,2.0226,2.0215,2.0217,2.0224,2.0227,2.023,2.0228,2.0182,0,0,0,0,0,2.014,2.0152,2.0157,2.0174,2.0178,2.018,2.0186,2.0185,2.0191,2.0194,2.0197,2.0204,2.0214,2.0221,2.0231,2.0252,2.0253,2.0262,2.0265,2.0267,2.0269,2.0281,2.0285,2.0243,2.0243,2.0243,0,0,2.015,2.0155,2.0163,2.0177,2.0182,2.0194,2.0182,2.0195,2.0204,2.0196,2.0212,2.0215,2.0222,2.0242,2.0251,2.0245,2.0281,2.027,2.0271,2.0272,2.0283,2.0287,2.029,2.0245,2.0245,2.0244,0,0,2.0174,2.0179,2.0194,2.02,2.0209,2.021,2.0214,2.022,2.0222,2.0239,2.0234,2.0244,2.0262,2.0268,2.0273,2.0301,2.0295,2.0304,2.0319,2.033,2.0334,2.0337,2.0346,2.035,2.0306,2.0307,2.0307,0,2.0185,2.0203,2.0202,2.0216,2.0222,2.0217,2.0232,2.0238,2.0249,2.0253,2.0247,2.027,2.0275,2.0295,2.0303,2.0307,2.0311,2.0303,2.0333,2.0336,2.0339,2.0348,2.0352,2.0308,2.0307,2.0307,2.0307,0,2.0216,2.0228,2.0239,2.0251,2.0259,2.0273,2.0275,2.0283,2.0282,2.0284,2.0301,2.0307,2.0318,2.0323,2.0321,2.0344,2.034,2.0334,2.0322,2.0344,2.0352,2.0356,2.0309,2.0309,2.0308,2.0308,0,0,2.0244,2.0257,2.0261,2.0267,2.0277,2.0286,2.0301,2.0313,2.032,2.0328,2.034,2.0356,2.0351,2.0357,2.0356,2.0366,2.0388,2.0359,2.0359,2.0363,2.0413,2.0417,2.0421,2.0385,2.0386,2.0386,2.0413,0,2.0268,2.0294,2.0295,2.0318,2.033,2.0326,2.0339,2.0346,2.0349,2.036,2.0363,2.0374,2.0366,2.037,2.038,2.0383,2.0398,2.0382,2.0396,2.0396,2.0393,2.0426,2.043,2.0454,2.0416,2.0417,2.0417,0,2.0299,2.0309,2.0334,2.0343,2.0348,2.036,2.0371,2.0381,2.039,2.0391,2.0399,2.0397,2.0412,2.0401,2.0421,2.041,2.0416,2.0419,2.042,2.042,2.0407,2.0426,2.0462,2.0465,2.0422,2.0422,2.0422,0,2.0317,2.0337,2.0355,2.036,2.0371,2.0379,2.0384,2.0393,2.04,2.041,2.0415,2.0426,2.0432,2.0441,2.0442,2.0434,2.0463,2.0452,2.0464,2.0464,2.0469,2.0468,2.0505,2.0475,2.0475,2.0475,2.0475,0,2.0343,2.0358,2.0363,2.0374,2.0391,2.0393,2.0409,2.0414,2.0421,2.0433,2.043,2.0441,2.0443,2.0454,2.0455,2.0472,2.0474,2.0476,2.0476,2.0475,2.0475,2.0478,2.0476,2.0476,2.0475,2.0475,2.0475,0,2.0365,2.0369,2.0388,2.0398,2.0401,2.0413,2.0421,2.0432,2.0435,2.045,2.0453,2.0458,2.0472,2.0474,2.0489,2.049,2.051,2.0509,2.0507,2.0507,2.0519,2.0517,2.0558,2.0563,2.053,2.053,2.0531,0,2.0381,2.0392,2.0404,2.0412,2.0418,2.043,2.0438,2.0441,2.0449,2.0461,2.047,2.0483,2.0493,2.0515,2.0519,2.0531,2.053,2.0543,2.0531,2.0531,2.0529,2.0528,2.0529,2.0545,2.0545,2.0546,2.0546,0,2.0408,2.041,2.0421,2.0435,2.0444,2.0454,2.0464,2.0471,2.0474,2.0484,2.0498,2.0506,2.0523,2.0536,2.0548,2.0553,2.055,2.055,2.0553,2.0553,2.0551,2.0551,2.0512,2.0549,2.0548,2.0548,2.0548,2.0548,2.0427,2.0437,2.0447,2.0461,2.0469,2.0478,2.0489,2.0494,2.0506,2.052,2.0521,2.0536,2.0545,2.0562,2.0568,2.058,2.0575,2.058,2.0581,2.0582,2.0583,2.055,2.0582,2.0582,2.0582,2.0582,2.0582,0,2.0453,2.046,2.0473,2.0487,2.0498,2.0496,2.0507,2.0515,2.0529,2.0539,2.0549,2.0566,2.0579,2.0586,2.0598,2.0607,2.0606,2.061,2.0609,2.061,2.0586,2.0582,2.061,2.061,2.061,2.061,2.061,2.061,2.0468,2.0486,2.0489,2.0511,2.0518,2.0533,2.054,2.0549,2.0556,2.0575,2.0586,2.0591,2.0599,2.0613,2.0625,2.0627,2.0631,2.0636,2.0637,2.0614,2.0611,2.0609,2.0604,2.0637,2.0637,2.0659,2.0659,2.066]},{"header":{"parameterUnit":"m.s-1","parameterCategory":1,"la1":30.2991,"la2":30.254,"lo1":-89.0895,"lo2":-89.0444,"dy":0.0017,"dx":0.0017,"nx":28,"ny":28,"refTime":"2025-12-29T03:00:00:Z","depth":0,"parameterNumber":3,"parameterNumberName":"V-component_of_WINDS"},"data":[0,0,0,0,0,0,0,0,0,0,0,0,0,0,0,0,0,0,0,0,0,0,0,0,0,0,0,0,0,0,0,0,0,0,0,0,0,0,0,0,0,0,0,0,0,0,0,0,0,0,0,0,0,0,0,0,0,0,-8.1608,-8.161,0,-8.1797,-8.1799,-8.1801,-8.1716,-8.1711,-8.1707,-8.1702,-8.189,-8.1899,-8.1908,0,0,0,0,0,0,0,0,0,0,0,0,0,-8.1168,-8.1176,-8.1608,-8.161,-8.1612,-8.1796,-8.1799,-8.1802,-8.1717,-8.1711,-8.1705,-8.17,-8.1887,-8.1898,-8.1909,0,0,0,0,0,0,0,0,0,0,0,0,0,-8.1358,-8.1179,-8.1607,-8.1592,-8.1593,-8.1796,-8.1799,-8.1802,-8.1718,-8.1711,-8.1704,-8.1697,-8.1883,-8.1897,-8.191,-8.2137,0,0,-8.1953,-8.1959,0,0,0,0,0,0,0,0,-8.1347,-8.1374,-8.1592,-8.1594,-8.1595,-8.1726,-8.1712,-8.1914,-8.172,-8.167,-8.1702,-8.1694,-8.184,-8.1858,-8.1908,-8.2146,-8.2154,-8.1955,-8.1963,-8.1969,-8.1973,0,0,0,0,0,0,0,-8.1334,-8.1365,-8.1682,-8.1595,-8.1597,-8.1574,-8.1594,-8.175,-8.1792,-8.1674,-8.1668,-8.1692,-8.184,-8.1895,-8.1912,-8.2157,-8.1954,-8.1967,-8.1975,-8.1981,-8.259,-8.2597,0,0,0,0,0,0,-8.1322,-8.1355,-8.1676,-8.1688,-8.1451,-8.1588,-8.161,-8.1691,-8.179,-8.1799,-8.1698,-8.1688,-8.1874,-8.1896,-8.1918,-8.2191,-8.1969,-8.1982,-8.199,-8.2582,-8.2591,-8.26,0,0,0,0,0,0,-8.1313,-8.1351,-8.1668,-8.152,-8.1559,-8.1603,-8.1695,-8.1698,-8.1753,-8.1809,-8.1815,-8.1747,-8.187,-8.1898,-8.2084,-8.2196,-8.1988,-8.2001,-8.2573,-8.2585,-8.2596,-8.2737,0,0,0,0,0,0,-8.1301,-8.1349,-8.1437,-8.1523,-8.1567,-8.1833,-8.1702,-8.1707,-8.1778,-8.1766,-8.1856,-8.1864,-8.1866,-8.2063,-8.2098,-8.2212,-8.2012,-8.2563,-8.2578,-8.2592,-8.2723,-8.2753,-8.2778,0,0,0,0,0,-8.1285,-8.1468,-8.1442,-8.1481,-8.1678,-8.184,-8.1865,-8.1866,-8.1788,-8.1876,-8.1911,-8.1861,-8.2178,-8.2083,-8.2121,-8.2241,-8.2556,-8.2574,-8.2591,-8.2711,-8.2747,-8.2777,0,0,0,0,0,0,-8.1392,-8.1479,-8.1451,-8.1667,-8.1747,-8.1825,-8.1937,-8.1904,-8.2006,-8.199,-8.1984,-8.2005,-8.2198,-8.2237,-8.213,-8.2465,-8.2355,-8.2381,-8.2433,-8.2468,-8.2494,-8.2481,-8.2024,0,0,0,0,0,-8.1441,-8.1567,-8.1635,-8.1819,-8.1861,-8.1892,-8.1962,-8.1956,-8.2038,-8.2071,-8.2119,-8.2199,-8.2316,-8.2394,-8.2505,-8.2728,-8.2746,-8.2829,-8.2856,-8.2878,-8.2901,-8.3022,-8.306,-8.2657,-8.2657,-8.2657,0,0,-8.1542,-8.1605,-8.1685,-8.1842,-8.1903,-8.2032,-8.1921,-8.2062,-8.2157,-8.2091,-8.227,-8.2309,-8.2397,-8.2603,-8.2695,-8.2642,-8.3016,-8.2901,-8.2918,-8.2929,-8.3044,-8.3082,-8.3116,-8.2669,-8.2667,-8.2665,0,0,-8.1794,-8.1855,-8.2015,-8.208,-8.2174,-8.2194,-8.2233,-8.2317,-8.2341,-8.252,-8.2474,-8.2585,-8.2788,-8.2853,-8.2912,-8.3189,-8.3147,-8.3225,-8.3369,-8.3487,-8.3518,-8.3546,-8.3646,-8.3681,-8.3247,-8.3248,-8.3248,0,-8.1909,-8.2103,-8.2101,-8.2247,-8.2317,-8.2265,-8.2427,-8.2488,-8.2614,-8.2663,-8.2601,-8.2855,-8.291,-8.313,-8.3198,-8.3248,-8.3291,-8.3215,-8.3514,-8.3542,-8.3569,-8.3663,-8.37,-8.3257,-8.3256,-8.3255,-8.3254,0,-8.2239,-8.2375,-8.2492,-8.2618,-8.2701,-8.2854,-8.2874,-8.2957,-8.2944,-8.2969,-8.3152,-8.3218,-8.3341,-8.3392,-8.3379,-8.3611,-8.3575,-8.3514,-8.3403,-8.3616,-8.3705,-8.3741,-8.3269,-8.3266,-8.3264,-8.3261,0,0,-8.2564,-8.2687,-8.273,-8.2787,-8.2888,-8.2991,-8.3141,-8.3264,-8.3336,-8.3424,-8.3549,-8.3722,-8.3666,-8.3734,-8.3727,-8.3831,-8.4047,-8.3757,-8.3759,-8.3809,-8.4306,-8.4352,-8.4394,-8.4019,-8.4026,-8.4031,-8.4299,0,-8.2824,-8.309,-8.3092,-8.3336,-8.3461,-8.3413,-8.3543,-8.3618,-8.3646,-8.3754,-8.3783,-8.3906,-8.3824,-8.3864,-8.3965,-8.3999,-8.4146,-8.398,-8.4134,-8.414,-8.4115,-8.444,-8.449,-8.4739,-8.4333,-8.4339,-8.4344,0,-8.3163,-8.3265,-8.3522,-8.3605,-8.3657,-8.3775,-8.3888,-8.3993,-8.4076,-8.4088,-8.4165,-8.4143,-8.4293,-8.4177,-8.4385,-8.4271,-8.4334,-8.4361,-8.437,-8.4385,-8.4255,-8.4465,-8.4819,-8.4856,-8.4398,-8.4394,-8.439,0,-8.3376,-8.3576,-8.3756,-8.3806,-8.3907,-8.3991,-8.4036,-8.4113,-8.4187,-8.4284,-8.4332,-8.4445,-8.4508,-8.4595,-8.4603,-8.4518,-8.4812,-8.4696,-8.4826,-8.4826,-8.4891,-8.4887,-8.526,-8.493,-8.4929,-8.4929,-8.4928,0,-8.3667,-8.3826,-8.3853,-8.3964,-8.414,-8.4141,-8.4314,-8.4352,-8.4421,-8.4537,-8.4501,-8.461,-8.4614,-8.4725,-8.4732,-8.4903,-8.493,-8.4944,-8.4944,-8.4948,-8.4947,-8.499,-8.4973,-8.4939,-8.4936,-8.4934,-8.4933,0,-8.3935,-8.396,-8.4152,-8.4233,-8.4257,-8.4383,-8.4451,-8.4556,-8.458,-8.4727,-8.4761,-8.4799,-8.4928,-8.4945,-8.5094,-8.5099,-8.5304,-8.5285,-8.5277,-8.5275,-8.5404,-8.5392,-8.5819,-8.5875,-8.5508,-8.5511,-8.5514,0,-8.412,-8.4241,-8.4335,-8.4412,-8.4462,-8.4585,-8.4661,-8.4665,-8.4745,-8.485,-8.4942,-8.5067,-8.5168,-8.5376,-8.5415,-8.5529,-8.5514,-8.5655,-8.553,-8.5531,-8.5517,-8.551,-8.5522,-8.568,-8.5684,-8.5687,-8.569,0,-8.4445,-8.4451,-8.4563,-8.468,-8.4772,-8.4863,-8.4949,-8.5012,-8.5027,-8.5119,-8.5251,-8.533,-8.5484,-8.5609,-8.5722,-8.5766,-8.5731,-8.5729,-8.5765,-8.5771,-8.5762,-8.5769,-8.5344,-8.5719,-8.5716,-8.5714,-8.5712,-8.5711,-8.4677,-8.4784,-8.4867,-8.4992,-8.5058,-8.5139,-8.5242,-8.5279,-8.5391,-8.5519,-8.5513,-8.5659,-8.5738,-8.5887,-8.5939,-8.6052,-8.6005,-8.6058,-8.6071,-8.6084,-8.6098,-8.5743,-8.6072,-8.6072,-8.6071,-8.607,-8.607,0,-8.5002,-8.5053,-8.5169,-8.5291,-8.539,-8.5349,-8.5442,-8.5527,-8.5657,-8.5735,-8.5835,-8.5987,-8.6108,-8.6158,-8.6276,-8.6357,-8.6343,-8.6387,-8.6382,-8.6393,-8.6132,-8.609,-8.6396,-8.6396,-8.6396,-8.6396,-8.6396,-8.6396,-8.5182,-8.536,-8.5376,-8.5585,-8.5635,-8.578,-8.5836,-8.591,-8.5973,-8.6145,-8.6247,-8.6278,-8.6344,-8.6467,-8.6576,-8.6587,-8.6632,-8.6684,-8.6688,-8.6444,-8.6411,-8.638,-8.634,-8.6694,-8.6694,-8.6939,-8.6941,-8.6943]}]]